Location: Munkebjergskolens Observatorium
(55.3864°N, 10.3987°E)
Time: 10:43:08
(UTC+02:00)

O/OREOS (USA 219) - Visible Passes

Search period start: 01 April 2023 00:00
Search period end: 11 April 2023 00:00
Orbit: 621 x 646 km, 72.0° (Epoch: 22 May)

Date Brightness Start Highest point End Pass type
(mag) Time Alt. Az. Time Alt. Az. Time Alt. Az.
01 Apr ? 05:53:54 10° S 05:58:17 47° ESE 06:02:39 10° NE visible
02 Apr ? 04:38:51 10° SE 04:41:32 15° E 04:44:11 10° ENE visible
03 Apr ? 04:59:20 10° SSE 05:03:13 28° ESE 05:07:06 10° NE visible
04 Apr ? 05:20:39 10° S 05:25:04 51° ESE 05:29:30 10° NE visible
05 Apr ? 04:05:23 10° SE 04:08:17 17° E 04:11:10 10° ENE visible
05 Apr ? 05:42:29 10° SSW 05:47:04 88° WNW 05:51:40 10° NNE visible
06 Apr ? 04:26:10 11° SSE 04:29:59 30° ESE 04:33:58 10° NE visible
07 Apr ? 04:48:06 14° S 04:51:52 55° ESE 04:56:19 10° NE visible
08 Apr ? 03:32:32 12° SE 03:35:02 18° ESE 03:38:08 10° ENE visible
08 Apr ? 05:10:00 14° SW 05:13:53 82° WNW 05:18:28 10° NNE visible
09 Apr ? 03:54:22 20° SSE 03:56:46 33° ESE 04:00:50 10° NE visible
09 Apr ? 05:31:49 11° SW 05:36:04 47° NW 05:40:29 10° NNE visible
10 Apr ? 02:39:26 10° ESE 02:40:11 10° E 02:40:56 10° E visible
10 Apr ? 04:16:09 25° S 04:18:39 60° ESE 04:23:09 10° NE visible
